sat.trackr.live / text

‹ back to catalog

2023-085AJ

NORAD 57036 · 2023-085AJ

PAYLOAD ACTIVE UNKNOWN

§ Identity

Operator
Country
PRC
Launch date
2023-06-15
Launch site
TAISC
Launch vehicle
Mass (kg)
RCS (m²)

External: N2YO · Heavens-Above · Gunter

§ Orbital elements

Epoch: 2026-05-25T04:53:04.273152Z

Period
94.79 min
Inclination
97.4852°
Eccentricity
0.0007915
Mean motion
15.19120484 rev/d
Perigee alt
503.0 km
Apogee alt
513.9 km
Semi-major
6,886.6 km
B*
1.8086e-4
RAAN
250.9687°
Arg perigee
150.8039°
Mean anomaly
209.3639°
Rev number
16,283

§ Raw data

2023-085AJ1 57036U 23085AJ  26145.20352168  .00003731  00000+0  18086-3 0  99932 57036  97.4852 250.9687 0007915 150.8039 209.3639 15.19120484162830

JSON: /api/v1/satellites/57036 · /tle

For live sub-satellite position, see the globe view (requires WebGL).

§ Visibility from observer

Set your observer location to see the next 7 days of passes ≥ 10°. The values pass through the URL so the page stays shareable.

No JS? Fill the form by hand. The geolocation button needs JavaScript.